Pagina principale
METAR-TAF:

METAR-TAF

Aeroporti :

Anchorage, Alaska, Stati Uniti

latitudine: 61-11N, longitudine: 149-58W, altezza: 22 m

Osservazione

Il bollettino è stato emesso 43 minuti fa, alle 05:53 UTC
Vento 13 kt da sud/sud-ovest con raffiche fino a 20 kt
Temperature 12°C
Umidità 58%
Pressione 1003 hPa
Visibilità: 16.1 km
Cielo sereno

METAR: PALH 230553Z 20013G20KT 10SM CLR 12/04 A2963 RMK AO2 SLP035 T01170044 10156 20117 53007 $

Ora: 22:36 (06:36 UTC)


TAF: mancante

Osservazioni e previsioni meteorologiche di più di 4000 aeroporti (messaggi METAR e TAF).

Le stazioni disponibili sono rappresentate dai dischi gialli e rossi sulla carta.

Puntare il mouse per vedere il nome della stazione.

Clicca sopra per visualizzare le osservazioni e previsioni meteorologiche.

Per cambiare la mappa : fare clic sui pulsanti verdi con una croce nera per ingrandire, il pulsante verde con un trattino per diminuire, o sulla freccia verde per le mappe adiacenti.


METAR-TAF: